GFSFLT2_925_temp_198.txt.gz
Temp
23 22 22 22 22 21 21 20 20 20 20 20 20 20 19 19 18 18 18 19 19 19 19 20 20 20 19 18 18 17 17 16
23 22 22 22 21 21 21 20 20 19 19 19 19 19 19 18 18 17 17 18 19 19 19 20 20 20 19 18 17 16 17 16
23 23 22 22 21 21 20 20 20 19 19 19 18 18 18 18 17 16 15 16 17 18 19 19 20 20 19 17 16 16 16 16
23 22 22 21 20 20 20 20 19 18 18 18 18 18 18 18 17 16 15 16 17 18 19 19 19 19 18 16 16 16 15 15
22 22 22 21 20 19 19 19 19 19 18 18 18 18 17 17 17 17 15 15 16 17 18 19 19 18 17 16 16 15 15 14
21 22 21 21 20 19 19 18 18 18 18 18 17 17 17 17 17 17 16 15 15 16 17 18 18 17 16 16 15 15 14 14
21 21 21 21 20 19 19 19 19 19 19 18 18 18 18 17 17 17 17 16 15 16 17 17 18 16 15 15 15 14 14 13
21 22 22 21 20 19 19 19 19 19 19 18 18 18 18 17 17 17 17 16 16 16 17 17 17 16 15 15 14 14 13 13
21 21 20 20 20 19 19 19 19 19 19 18 18 18 18 18 18 17 17 17 16 16 16 16 16 16 15 14 14 13 13 13
21 20 20 19 19 18 18 18 19 19 18 18 19 18 17 18 18 17 17 17 17 16 15 15 15 15 14 13 13 12 12 12
20 19 19 18 18 18 18 18 18 18 18 18 19 18 18 17 17 17 17 16 16 16 15 15 15 14 14 13 12 12 12 11
19 19 19 19 19 19 18 18 18 17 17 17 19 19 19 17 16 16 15 15 14 15 14 15 15 14 12 12 11 11 11 11
20 20 19 19 18 18 18 18 18 18 17 17 17 17 17 16 16 15 15 14 15 16 15 13 12 13 10 9 9 10 10 10
19 19 18 18 18 18 17 16 17 16 17 17 16 16 16 16 16 15 15 14 13 12 12 11 12 11 11 9 8 8 8 8
19 19 19 18 17 18 18 18 18 17 16 16 15 15 15 15 15 15 14 14 13 12 13 12 12 11 13 12 7 7 7 7
19 19 19 18 16 16 16 16 16 16 16 16 16 15 15 14 14 14 14 13 13 12 12 12 13 11 12 13 12 9 8 6
18 18 18 18 18 18 17 15 15 15 15 15 15 15 15 14 14 14 13 13 12 11 11 11 12 12 11 12 10 10 10 8
17 17 17 17 17 17 17 17 16 15 13 13 13 13 13 13 13 13 12 12 12 11 10 10 11 11 10 12 11 10 8 9
17 16 16 16 16 16 15 14 14 14 14 14 14 11 11 11 11 11 11 11 11 11 11 10 9 10 10 10 10 11 12 11
15 14 14 14 15 14 14 13 13 13 12 12 11 12 13 12 11 10 10 10 10 11 11 10 9 9 9 9 9 10 11 11

GFSFLT2_925_temp_204.txt.gz
Temp
23 23 22 22 22 22 22 21 21 21 21 21 20 20 19 19 19 18 18 18 19 19 19 18 19 18 18 18 18 18 18 17
23 22 21 21 21 21 21 21 21 20 20 20 20 20 19 19 19 18 18 18 19 19 19 18 18 19 18 18 17 17 17 17
22 21 21 21 21 21 20 20 20 20 20 19 19 19 19 19 18 18 18 17 17 18 19 18 18 18 18 17 17 17 17 17
21 21 20 20 20 20 20 20 19 19 19 19 19 19 19 18 18 18 17 17 16 17 18 18 18 17 18 17 17 16 17 17
20 20 20 19 19 18 19 19 19 18 18 18 18 18 18 18 17 17 17 17 17 16 17 18 18 17 17 17 16 16 16 16
21 20 20 19 19 18 18 17 17 17 18 18 18 18 18 17 17 16 16 16 16 16 16 16 18 17 16 16 15 15 15 15
21 20 20 19 18 18 18 17 17 17 17 17 17 17 17 17 17 17 16 16 16 16 16 16 16 17 16 15 15 15 15 15
22 21 20 19 17 18 17 17 17 17 17 17 17 17 17 17 18 18 18 17 17 17 17 16 16 16 16 16 15 14 14 14
22 21 20 19 19 19 18 17 17 17 17 17 17 17 17 18 18 18 18 18 18 17 16 16 15 16 17 15 14 14 14 14
21 20 20 19 19 19 19 18 17 17 17 17 17 17 17 17 17 18 18 17 17 16 16 15 15 15 16 16 14 14 13 13
19 18 19 19 18 18 18 17 17 17 17 17 17 17 16 16 16 17 17 17 16 16 15 15 14 14 14 14 14 13 13 13
17 17 18 18 17 17 17 17 17 17 17 17 17 17 17 16 16 16 16 16 15 15 15 15 14 14 13 12 12 12 12 12
17 17 17 17 17 17 17 17 17 17 16 17 17 16 16 16 15 15 15 15 16 15 15 13 12 11 10 9 9 9 10 10
17 17 17 18 18 18 18 18 18 18 18 17 17 16 16 16 16 16 15 14 14 13 13 13 12 11 11 9 9 8 8 9
18 18 18 18 18 18 17 17 16 16 16 16 16 15 15 15 15 15 14 14 14 13 13 12 12 11 10 11 8 10 8 8
17 17 17 16 16 17 16 15 15 14 14 13 14 14 13 13 13 13 13 14 13 13 13 12 11 12 9 9 10 9 9 7
16 16 16 16 16 15 14 13 12 12 12 13 13 13 13 13 13 12 12 12 13 13 13 12 11 10 11 10 9 9 8 7
15 16 15 14 14 13 13 13 12 12 11 11 11 11 12 13 13 12 11 10 11 12 12 12 11 10 10 10 10 10 8 8
15 14 13 13 13 13 13 12 12 11 10 10 10 10 10 10 10 9 9 9 8 9 10 11 10 10 9 9 10 10 10 9
14 14 13 13 13 13 12 12 11 10 10 9 9 8 8 8 8 8 8 8 8 8 8 9 9 9 9 9 9 9 10 9

GFSFLT2_925_temp_207.txt.gz
Temp
22 22 22 22 22 22 22 21 21 21 21 21 21 20 20 19 19 19 19 19 19 18 18 18 19 18 18 18 18 18 17 18
22 21 21 21 21 21 21 21 21 21 21 20 20 19 19 19 18 18 19 19 19 18 18 18 18 18 18 18 17 18 17 17
21 21 20 19 19 20 20 20 20 20 20 20 19 18 18 18 18 18 18 18 18 18 18 18 18 18 18 17 17 17 17 17
21 21 20 19 19 18 18 18 19 18 19 19 18 18 18 18 17 17 17 17 18 18 17 18 18 18 18 17 16 16 16 17
21 21 20 18 18 19 18 19 18 18 18 18 19 18 17 17 17 16 16 16 17 17 17 17 17 17 17 15 15 15 16 16
21 21 20 18 18 18 18 17 18 18 18 17 17 17 17 17 17 16 16 16 16 17 17 18 18 18 18 17 17 15 15 15
21 21 20 19 18 18 18 17 17 17 17 17 17 17 17 17 16 16 16 16 16 16 16 17 17 17 17 17 15 15 14 14
21 21 21 19 18 17 17 17 17 17 17 17 17 17 17 17 17 16 16 17 18 17 16 16 16 17 17 17 15 14 14 14
21 20 19 18 17 17 17 16 16 17 17 17 17 17 17 17 17 18 17 16 16 16 16 16 16 16 16 16 14 13 13 13
19 19 18 18 18 18 17 17 17 16 17 17 17 16 17 17 16 17 17 16 16 15 15 15 15 15 15 15 14 13 13 13
18 17 18 18 18 18 18 17 17 17 16 17 17 17 17 16 16 16 16 16 16 15 15 14 14 14 15 14 14 13 13 13
17 17 17 17 17 17 17 17 17 17 16 17 16 16 16 16 16 16 15 15 15 15 15 14 14 14 13 12 13 12 12 12
16 17 17 17 17 17 17 17 16 16 16 16 16 16 16 15 15 15 15 14 14 13 14 13 13 13 11 10 10 10 10 10
16 17 17 17 17 17 17 16 16 17 17 16 16 16 16 15 15 14 14 13 14 13 13 12 12 12 11 9 10 9 8 9
16 16 16 17 17 17 17 17 16 16 16 16 16 15 15 14 14 13 13 12 12 12 13 13 13 12 12 11 10 10 9 9
15 15 16 16 17 17 17 16 15 13 14 14 14 14 14 14 14 14 13 13 11 11 12 12 12 12 11 10 11 11 11 9
15 15 16 16 16 16 16 14 14 13 13 13 14 14 13 14 13 13 13 13 12 10 10 11 11 12 12 12 10 10 9 9
14 14 14 15 15 15 14 14 13 12 12 12 12 12 12 12 12 11 11 9 9 9 9 9 10 11 11 11 11 11 11 9
13 13 12 14 14 14 13 13 12 11 10 10 9 9 9 9 10 10 9 8 7 7 7 8 9 9 10 10 10 11 11 11
12 12 11 12 13 13 12 12 11 10 10 9 8 8 8 7 7 6 6 6 6 6 7 7 8 8 9 10 9 10 10 10

GFSFLT2_925_temp_210.txt.gz
Temp
22 19 20 21 21 21 21 21 21 21 21 21 20 20 20 20 20 20 19 19 20 19 19 19 19 19 19 19 18 18 20 22
22 20 20 20 19 20 21 21 21 21 20 20 20 20 20 20 20 19 19 18 19 19 18 19 19 19 18 18 18 18 19 22
21 20 20 20 21 19 19 20 20 20 19 19 19 19 18 18 18 19 19 18 18 18 18 18 19 19 18 18 17 19 20 21
21 20 20 19 19 19 19 19 19 19 19 18 19 20 20 20 19 18 18 18 18 18 18 18 18 19 19 18 18 20 20 21
22 20 19 19 19 19 19 18 19 19 20 20 20 20 20 19 18 17 17 17 18 17 16 17 18 19 19 20 20 19 20 20
22 20 19 18 18 18 18 18 18 18 19 18 18 18 19 19 18 18 17 17 19 18 19 18 17 17 18 18 18 19 20 20
23 21 19 18 18 18 18 18 18 18 18 18 18 18 18 18 19 19 18 18 18 18 18 19 18 18 17 17 18 18 18 19
23 21 20 18 19 18 18 17 17 18 17 18 18 17 17 18 18 18 19 19 19 18 18 18 18 18 18 17 17 17 18 18
23 21 20 19 19 18 18 18 17 17 17 17 17 18 17 18 18 19 19 18 18 18 18 18 18 18 18 18 17 16 17 17
24 20 19 18 19 18 18 17 17 17 17 17 17 17 18 18 17 18 18 17 17 16 16 16 16 16 16 16 17 17 17 17
23 20 18 18 18 18 17 17 17 17 17 17 17 16 17 16 17 17 17 16 16 15 15 15 14 14 14 14 14 15 15 16
23 19 17 17 17 17 17 17 17 17 17 17 17 17 17 17 16 16 16 16 15 15 14 14 14 14 14 14 14 14 13 13
21 17 17 17 17 17 17 17 17 17 17 17 16 16 16 16 16 17 17 17 16 16 16 15 15 14 12 12 11 12 11 13
18 17 17 17 17 17 17 17 17 18 17 16 16 16 16 16 16 16 16 16 16 16 16 16 17 16 15 15 15 17 12 12
18 17 17 17 17 16 16 16 16 16 17 17 15 15 15 14 15 15 14 14 15 15 15 15 16 16 16 15 17 18 19 15
18 15 16 16 16 16 17 18 18 17 17 16 16 14 14 14 13 13 13 13 14 14 14 14 14 15 16 16 14 15 16 16
17 16 16 16 16 17 17 17 17 16 16 15 14 14 13 13 13 12 12 12 13 12 12 12 13 13 14 15 15 14 13 14
17 17 17 16 16 17 17 16 16 16 15 15 14 14 13 13 12 12 11 11 11 11 11 11 11 11 12 13 14 15 16 15
17 17 16 16 16 15 15 15 14 14 14 14 13 13 13 13 12 11 10 10 10 9 10 10 10 10 11 11 12 13 13 14
17 17 16 15 15 14 14 13 14 13 13 12 12 12 12 11 10 9 9 9 8 8 8 8 9 9 9 10 11 11 12 12

GFSFLT2_925_temp_213.txt.gz
Temp
23 20 21 22 22 22 22 22 22 22 21 21 21 21 21 20 19 18 19 19 19 19 19 19 19 19 19 19 19 19 20 23
23 21 20 20 20 21 21 21 21 21 21 20 20 20 20 20 19 18 18 19 19 19 19 19 20 19 19 19 19 19 19 22
24 23 22 22 22 19 20 20 21 20 20 20 20 19 19 19 19 19 18 18 19 19 19 19 19 20 19 19 19 19 21 22
23 23 23 23 24 21 19 19 19 19 19 18 19 21 20 21 20 19 18 18 18 18 18 19 19 20 20 19 18 20 22 23
24 23 22 22 23 22 21 21 21 20 20 20 20 21 20 20 20 19 18 17 17 18 18 18 19 21 22 21 21 21 22 22
25 23 22 21 23 20 22 20 21 21 21 20 20 20 20 20 20 20 19 19 19 19 20 20 20 19 19 20 20 21 22 22
26 24 22 22 21 20 20 19 19 20 20 20 20 19 20 19 19 19 19 19 20 19 19 20 19 19 19 19 19 19 19 20
27 24 22 21 22 20 19 19 19 19 19 20 19 19 19 19 19 18 18 19 19 20 20 19 19 19 19 19 19 19 19 19
27 25 23 22 22 21 20 19 19 19 19 19 19 19 19 19 20 20 20 20 20 20 19 19 19 19 19 19 18 19 19 19
28 25 23 22 22 20 21 19 18 18 19 19 19 19 19 19 19 20 20 19 18 18 17 17 17 17 17 17 17 17 18 18
29 25 23 22 22 20 21 20 18 18 18 19 19 18 18 18 18 18 17 17 17 16 16 16 15 15 15 15 16 16 16 16
29 25 22 21 21 19 19 18 18 18 18 18 18 18 18 17 17 17 17 17 17 17 16 16 15 14 15 14 14 15 16 17
27 24 19 19 18 18 17 17 18 18 18 18 17 17 17 17 18 18 18 18 19 18 18 18 18 19 18 17 17 16 15 15
27 20 18 18 17 18 17 19 19 18 17 17 17 17 17 18 18 19 18 18 18 17 17 17 17 18 18 18 19 19 19 16
24 19 17 17 17 17 17 17 17 17 18 17 17 17 17 17 17 16 16 16 16 16 16 16 16 17 17 17 18 18 19 18
22 20 17 17 17 16 16 17 18 17 18 18 17 17 17 16 15 15 15 15 15 15 16 15 15 15 16 16 16 17 17 16
21 17 16 15 15 16 17 17 17 18 17 17 17 16 16 15 15 14 14 14 14 13 13 13 13 14 14 15 15 15 16 16
18 17 16 15 16 17 17 17 17 17 17 17 17 17 16 15 14 14 13 13 12 12 12 12 12 12 12 12 12 14 15 16
19 18 17 17 17 17 17 17 17 17 16 17 16 16 15 15 14 13 12 12 11 11 11 11 11 11 10 11 11 12 13 13
20 19 19 18 17 17 16 16 17 17 16 16 15 14 14 13 12 11 11 11 10 10 10 10 10 9 9 9 10 10 10 11

GFSFLT2_925_temp_219.txt.gz
Temp
25 24 24 24 24 23 23 23 23 22 22 21 21 21 20 20 20 20 20 20 20 20 20 20 20 20 20 20 21 21 22 22
24 23 23 23 23 23 23 23 22 22 22 21 21 21 20 20 20 20 20 20 20 20 20 20 20 20 20 20 21 21 22 22
24 23 23 23 23 23 22 22 22 22 21 21 21 20 20 19 20 20 20 20 20 20 20 20 20 20 20 21 21 21 21 22
24 23 22 22 22 22 22 21 21 21 21 21 21 20 20 20 20 20 19 19 19 19 20 20 20 20 20 20 21 21 21 21
23 23 22 22 21 22 21 21 21 21 21 21 21 20 19 19 19 19 19 19 19 19 19 19 19 20 20 20 20 20 20 21
23 22 22 22 21 21 21 21 21 20 20 20 20 20 19 19 19 19 19 19 19 19 19 19 19 20 19 20 19 19 20 20
23 22 22 22 21 21 21 21 21 21 20 19 20 20 20 19 19 19 19 19 19 19 19 19 19 19 19 20 20 20 20 20
23 23 22 22 22 21 21 21 21 20 20 20 20 20 20 20 19 19 19 19 19 19 19 19 19 19 20 19 19 19 19 19
23 23 23 22 22 21 21 20 20 20 20 20 20 19 20 19 19 19 19 19 19 19 19 19 19 19 19 19 18 18 18 18
23 23 23 22 22 22 22 20 20 20 20 20 20 20 20 19 19 19 19 19 19 19 19 18 18 18 18 18 18 18 18 18
23 22 22 22 22 21 21 20 20 19 20 20 19 19 19 19 19 19 19 19 18 18 18 18 18 18 18 18 18 18 18 18
23 22 22 22 21 21 21 20 19 19 19 20 20 20 19 19 19 19 18 18 18 18 18 18 17 17 17 17 17 17 17 17
23 22 21 21 20 20 20 19 19 19 19 19 20 19 19 19 18 18 18 18 18 18 17 17 17 17 17 17 17 17 17 17
23 22 21 21 21 20 19 19 19 19 19 19 19 19 19 19 18 18 18 17 17 17 17 17 16 16 15 14 11 14 17 16
23 22 21 21 20 20 20 20 19 19 18 18 18 19 18 18 18 18 17 18 17 17 16 16 15 15 15 14 10 10 12 15
24 23 21 21 20 20 20 19 18 18 17 18 18 17 18 18 18 17 17 17 16 15 15 14 13 13 13 13 13 12 9 9
22 22 21 20 19 20 19 18 18 17 17 17 16 17 17 17 17 16 16 15 14 14 13 13 12 12 11 11 11 11 11 9
21 20 18 18 18 19 19 18 17 16 16 17 16 16 16 16 15 15 14 14 13 12 12 11 11 10 10 10 10 9 9 9
18 18 17 18 18 18 18 18 17 17 17 16 16 16 15 15 14 14 13 12 11 11 11 10 9 9 8 8 8 8 8 8
17 16 16 16 17 17 17 17 16 15 16 16 16 16 15 14 13 13 12 11 10 10 9 9 8 8 7 7 6 6 6 6

GFSFLT2_925_temp_225.txt.gz
Temp
24 24 24 24 23 23 23 23 23 23 22 22 22 22 22 22 22 22 21 21 21 20 20 20 20 20 20 20 20 20 20 20
24 24 23 23 23 23 23 23 23 22 22 22 22 22 21 21 21 21 21 21 21 21 20 20 20 20 20 20 20 20 20 20
24 24 23 23 23 22 22 22 22 22 22 22 22 21 21 21 21 21 21 21 20 20 20 20 20 20 20 21 21 21 20 20
24 24 24 23 22 22 21 21 21 21 21 21 21 21 21 21 20 20 20 20 20 20 20 20 20 20 20 20 20 20 20 20
23 23 24 23 22 22 21 21 21 21 21 21 21 21 21 20 20 20 19 20 20 20 20 20 20 20 20 20 20 20 20 20
23 23 23 23 23 22 21 21 21 21 21 21 20 20 20 20 20 19 19 19 19 19 19 19 19 19 19 20 20 20 20 20
23 23 23 22 22 22 22 21 21 21 21 20 20 20 20 20 20 19 19 19 19 19 19 19 19 19 19 19 19 19 19 19
23 23 23 22 22 22 22 22 22 21 21 20 20 20 20 20 20 19 19 19 19 19 19 19 19 18 19 19 19 19 19 18
23 23 22 22 22 22 22 22 21 21 21 20 20 20 20 20 19 19 19 19 19 18 18 18 18 18 18 19 18 18 18 18
22 23 22 22 22 22 21 21 21 21 21 21 20 20 20 19 19 19 19 19 18 18 18 18 18 18 18 18 18 18 18 18
21 21 23 23 22 21 21 21 21 21 21 21 20 20 20 19 19 19 19 19 18 18 18 18 18 18 18 18 18 18 18 18
23 21 22 21 20 19 19 19 20 20 21 20 20 20 20 19 19 19 18 18 18 18 17 18 17 17 17 17 17 17 18 18
22 20 20 20 19 18 18 18 19 19 20 20 20 20 20 19 19 19 18 18 18 18 17 17 16 16 16 17 17 18 18 18
22 21 19 20 19 19 18 18 18 19 20 20 20 20 19 19 19 19 18 18 18 18 17 16 16 15 15 13 11 14 15 16
21 21 20 20 20 18 19 18 18 18 18 19 20 20 20 19 19 19 19 18 18 17 17 16 16 14 15 14 10 10 8 14
21 21 20 19 19 18 19 19 19 18 18 19 19 19 19 19 19 19 19 17 17 17 16 16 16 14 13 13 13 12 9 8
21 21 19 19 19 18 18 18 19 18 18 18 19 18 19 19 18 18 18 17 17 17 16 16 15 14 13 12 11 10 10 7
21 20 19 19 18 18 18 18 18 17 17 17 18 18 18 18 18 18 17 16 16 15 15 14 14 13 12 11 10 9 8 7
21 20 19 19 18 18 18 18 17 17 17 16 17 17 16 17 17 17 16 16 15 15 14 13 13 12 11 10 9 8 7 6
20 19 19 19 18 18 18 17 17 17 16 16 16 16 16 16 16 16 15 14 14 14 13 12 11 11 10 9 8 7 6 5

GFSFLT2_925_temp_228.txt.gz
Temp
24 24 23 23 24 23 23 23 23 22 22 22 22 22 21 21 21 21 21 21 21 21 21 20 21 21 20 20 20 20 20 20
24 23 23 23 23 23 23 23 22 22 22 22 22 22 21 21 21 21 21 20 20 20 21 21 20 20 20 20 20 20 20 20
23 23 23 23 23 22 22 22 22 22 22 21 21 21 21 21 21 21 21 20 20 20 20 20 20 20 20 20 21 21 21 21
23 23 23 22 22 22 22 22 21 21 21 21 21 21 21 21 21 21 21 20 20 20 20 20 20 20 20 20 20 20 20 20
22 23 23 22 21 21 21 21 21 21 21 21 21 21 20 20 20 20 20 20 20 20 20 20 20 19 19 20 20 20 20 20
23 23 24 24 22 21 21 20 20 20 20 20 20 20 20 20 20 20 20 20 20 19 20 19 19 19 19 19 19 20 19 19
24 23 23 23 22 22 20 19 20 20 20 20 20 20 20 20 20 20 20 20 19 19 19 19 19 19 19 19 19 19 19 19
23 22 22 22 22 22 22 20 20 20 21 21 20 20 20 20 20 20 20 20 19 19 19 19 18 18 18 18 19 19 19 19
22 22 22 22 22 22 22 22 21 21 21 21 21 20 20 20 20 20 20 19 19 18 18 18 18 18 18 18 18 19 18 18
23 22 21 21 22 22 21 21 21 22 21 21 20 20 20 20 19 20 20 19 19 18 18 18 18 18 18 18 18 18 18 18
23 22 23 22 20 19 20 21 21 21 21 21 20 20 20 19 19 19 19 19 18 18 18 17 17 17 17 18 17 17 17 17
23 23 22 21 20 18 18 19 19 20 21 21 20 20 19 19 19 19 19 18 18 18 17 17 17 17 17 17 17 17 17 17
23 22 22 20 18 18 17 17 17 19 20 21 21 20 19 19 18 19 18 18 18 18 18 17 16 16 16 16 17 18 18 18
23 23 21 21 19 18 18 17 17 19 19 19 20 20 19 19 19 19 18 18 18 18 18 17 16 16 15 14 13 15 16 16
25 23 21 21 19 18 18 18 18 17 17 18 19 20 20 19 19 19 18 18 18 18 17 17 16 14 15 15 12 12 9 15
22 22 20 19 18 18 18 19 18 18 17 17 19 19 19 19 19 19 18 18 18 18 17 17 16 15 13 14 14 13 11 10
21 20 19 18 18 18 18 18 19 19 18 17 18 19 19 19 19 19 19 18 18 18 17 16 16 16 15 13 12 11 11 9
21 20 19 18 18 18 18 18 18 18 17 17 17 18 19 19 19 19 18 18 18 17 16 15 16 16 15 14 13 11 8 7
20 20 19 18 18 18 18 18 18 18 17 17 16 18 18 18 18 18 17 18 17 16 15 15 15 15 14 12 11 10 9 7
21 20 20 19 18 18 18 18 18 18 17 17 17 18 18 18 17 17 17 17 16 15 15 14 13 12 12 11 9 8 7 6

GFSFLT2_925_temp_234.txt.gz
Temp
22 21 23 24 24 24 24 24 23 23 22 22 22 21 21 21 21 21 21 20 20 20 20 20 20 20 19 19 20 20 22 23
22 22 21 21 22 23 23 23 23 23 22 22 22 21 21 21 21 21 20 20 20 20 20 19 20 20 19 19 20 20 22 22
22 22 22 22 21 21 22 22 22 22 22 22 21 20 19 20 19 21 21 20 20 20 19 19 19 19 20 20 20 22 22 22
22 22 22 22 23 21 20 20 20 20 20 20 20 21 20 20 20 20 20 20 20 19 19 19 20 20 19 19 21 21 21 22
23 22 22 22 23 22 22 21 21 21 20 20 21 21 20 20 20 18 18 20 19 19 19 19 21 22 22 21 21 20 22 22
23 22 21 21 23 22 23 23 22 21 21 20 21 20 20 21 21 21 20 20 21 20 20 21 20 20 20 21 20 21 22 22
24 22 22 21 22 23 23 23 22 22 21 20 21 21 21 21 21 21 21 21 20 20 21 20 20 20 20 20 20 20 21 21
24 23 22 22 22 22 22 22 23 22 22 21 20 21 21 21 21 21 21 21 21 21 21 20 20 20 20 20 20 20 20 20
24 23 22 21 21 21 21 22 22 22 22 20 20 20 21 21 21 21 21 21 20 20 20 20 20 20 20 20 20 20 20 20
25 23 22 21 22 21 22 22 22 22 22 21 20 20 20 20 21 21 21 20 20 20 20 20 20 21 21 20 20 20 19 19
26 24 23 22 21 22 22 22 21 22 21 21 19 19 20 20 21 21 20 20 20 20 20 20 21 20 20 20 19 20 19 19
27 25 24 22 22 22 22 22 21 21 21 20 20 19 20 19 21 21 20 20 20 20 20 20 20 20 19 20 19 19 19 19
27 26 24 23 23 23 23 23 22 21 21 21 20 20 20 20 21 20 19 20 21 20 20 19 19 19 19 19 20 19 18 19
26 26 25 23 24 24 24 24 24 23 22 21 20 20 20 20 20 21 20 20 20 20 20 18 18 18 19 20 22 21 19 18
26 27 26 24 23 24 24 24 24 23 22 21 21 20 20 20 20 21 20 20 21 20 20 19 18 15 17 20 20 22 21 18
26 26 26 26 24 24 24 24 25 24 23 23 22 20 20 20 20 20 20 20 20 20 19 20 20 18 14 16 17 18 20 19
26 26 26 26 25 23 23 23 24 24 22 22 21 20 20 20 19 19 19 19 20 20 18 18 17 18 17 15 14 14 14 16
27 25 26 25 25 23 22 23 23 24 24 22 22 21 19 19 19 19 19 19 19 19 18 17 18 18 17 16 16 16 16 16
25 25 26 26 24 24 22 22 22 23 23 22 22 21 18 19 19 19 19 19 19 18 18 18 17 17 16 16 15 15 16 16
25 25 26 26 24 24 23 23 22 22 22 23 22 21 18 18 18 19 19 18 18 18 18 17 16 15 14 14 14 14 14 15